Vertical_Velocity
1 -0 1 0 0 1 0 1 -1 -1 -0 -3 -1 -5 -9 -4 -3 -6 -1 0 -2 -2 -1 -2 -3 -2 -1 0 -0 0 -0 -2 0 -2 -2 -1 -3 -2 -2 -3 -2 2 2 -1 -1 -1 -6 -2 1 3 0 -3 0 -1
1 1 1 1 0 2 -0 0 0 -1 -0 2 -1 -2 -6 -9 2 -6 -3 -2 -0 1 -3 -1 -2 -2 -1 -3 1 -1 -2 -1 -1 -1 0 -0 -3 -1 1 -4 -4 -6 -6 -2 0 -2 -7 -6 -2 -3 -1 -3 -2 2
2 5 2 1 3 2 0 1 0 1 0 2 0 2 -8 -11 -5 -2 -2 -6 -4 1 3 -3 0 -2 -1 1 -2 -1 1 -2 -1 -2 -1 -2 -1 -2 -3 -2 0 0 -4 -6 2 -3 -0 4 2 -3 -3 -2 -2 -1
3 0 5 1 -1 4 1 -1 1 0 2 3 1 -2 -3 -9 -4 1 -2 -1 -7 -7 -1 1 0 0 1 -1 -0 -3 -0 -0 -1 -0 -0 1 -1 0 -5 -3 -1 4 6 0 2 1 2 -3 -1 -2 -0 -1 -2 -3
7 7 5 9 7 6 4 3 1 -1 2 1 2 -4 1 -2 -11 -2 -6 0 3 -0 -5 -9 -4 0 1 2 2 1 -1 2 -3 -1 -1 1 1 -1 -2 -6 -8 3 1 -2 -9 -0 -2 1 1 0 2 0 -3 -3
7 8 9 4 4 4 11 9 4 4 2 4 6 3 -1 -6 -6 -2 -4 -3 -0 3 -0 -7 -8 -3 -2 0 3 1 -0 -2 -2 -1 0 -2 3 -1 -1 -11 5 0 -5 -4 3 -6 -2 2 -1 1 0 -1 -1 1
6 0 1 5 4 5 -3 -2 7 6 5 4 6 3 6 -13 -1 5 3 -3 -1 -0 2 -6 -5 -0 -3 -2 0 1 1 2 -2 -1 0 -1 2 1 -2 -7 -2 -6 2 1 3 5 -4 -1 1 -2 -3 -0 2 2
9 14 5 1 6 6 4 5 3 4 3 7 7 1 -5 -11 -4 -3 -1 4 2 5 3 0 -3 -1 1 -1 0 -2 -3 2 0 -3 -1 2 -2 2 -5 0 -2 -1 -2 1 -3 -2 4 -4 -2 1 1 -2 -3 -2
10 7 4 13 -8 3 5 4 -1 1 5 5 4 3 -9 -7 -3 -0 -10 -2 -4 14 6 -3 1 -2 2 3 1 1 -1 -2 0 -4 0 -1 0 -8 -2 -1 -3 -3 -4 -5 -3 -0 -0 2 -2 -2 2 1 -1 -2
9 10 8 13 14 11 3 9 6 2 2 2 4 -2 -8 -4 -4 2 -10 -5 -6 -4 -1 -5 5 3 1 2 4 -1 -1 -1 1 -1 1 -4 -15 -2 -2 1 -0 -3 -2 -4 1 2 2 1 2 -1 -6 -3 -0 0
9 11 7 6 12 25 8 5 5 10 9 6 -8 -9 -2 7 9 4 -2 -4 -5 -2 -2 -1 2 6 5 4 2 -0 0 1 0 -3 0 -1 -11 -2 -2 -2 1 -1 -3 -4 -3 -1 3 2 -1 -0 -2 -4 -3 -2
4 8 15 12 8 13 18 15 9 1 9 6 -5 3 6 7 3 0 1 -1 -3 -4 -3 -1 -0 4 1 2 3 1 -1 -0 1 2 -2 -4 4 -1 -3 -0 0 -2 -3 -6 -0 1 0 1 0 -2 -1 -1 -2 2
6 7 3 16 12 14 16 11 7 18 18 1 5 10 9 -2 8 -2 -5 -8 -9 -6 3 -0 -2 2 3 3 2 0 -0 0 2 1 -6 -3 -1 4 4 2 2 -5 -3 -4 -1 5 2 1 1 -1 -1 -1 0 -3
1 8 7 1 12 18 20 19 1 18 11 6 5 10 -8 1 -3 -19 2 -4 -3 -4 4 5 6 3 2 2 -0 -0 4 -2 -0 -3 -12 2 -0 1 -1 0 -2 -3 -0 -2 2 7 6 2 1 -0 -2 1 -4 -5
8 6 -3 18 -6 21 30 19 -4 7 8 11 2 -5 0 -12 -8 2 -2 -0 1 -0 -4 -1 3 6 2 2 -0 2 -1 -2 -2 -7 -0 -1 1 3 2 -1 -1 -1 0 -7 0 2 5 3 1 2 1 -4 -3 -3
7 19 -9 2 11 17 26 31 20 15 8 11 -1 5 -5 -2 2 -7 -4 10 1 2 2 0 4 5 1 -2 0 -0 0 -12 -3 2 1 1 2 -1 -2 -2 -5 -4 0 0 5 -0 1 3 2 1 -1 -1 -1 -1
8 7 -21 3 14 35 22 19 3 3 20 -8 -9 0 7 -0 8 -1 1 16 5 -1 -2 7 -2 -3 1 2 -4 -5 -13 5 4 -2 -2 -1 1 1 -0 1 2 3 3 -0 6 4 3 1 1 1 1 -1 -1 -1
-14 -4 4 9 46 39 33 5 15 7 -10 1 -4 -11 -6 3 -4 2 -4 3 4 -2 -0 4 10 2 -7 -6 -5 1 0 -1 -1 2 4 4 3 -2 -4 -2 -2 -2 -0 -2 3 2 0 3 2 2 1 -1 -0 -1
2 7 1 53 2 -11 7 20 6 -1 1 2 5 -2 -5 -2 -4 -0 7 4 3 6 17 0 9 -4 -4 -5 3 2 1 0 3 3 3 0 -4 -3 -3 -3 -1 -1 -0 -1 2 3 4 6 4 2 -0 -1 1 0
2 20 52 6 23 10 12 11 4 8 7 8 -1 -7 -5 -3 -1 6 9 7 10 14 10 1 -7 -3 4 3 1 3 2 1 -3 -0 6 5 1 -4 -2 -1 -0 -1 1 -0 2 1 2 1 2 0 -1 -0 1 -1
76 56 22 8 18 17 7 7 1 -5 1 1 9 7 -3 1 5 9 8 12 11 -1 0 -1 3 3 1 2 2 1 -0 -0 -2 -5 -7 1 1 -5 -3 -1 1 2 2 -0 1 0 -1 2 1 1 -1 0 0 -0
5 8 4 19 21 7 3 3 1 -2 -6 -11 -2 -2 -1 5 7 8 11 7 3 -2 1 3 1 2 3 1 -2 1 0 -0 -3 -3 -1 -2 -2 -1 1 2 1 2 1 1 1 1 1 3 3 1 1 1 2 0
4 12 15 13 8 5 2 -1 3 -1 3 1 3 6 5 6 5 10 6 2 0 1 1 1 1 0 1 -1 2 -4 -1 -1 -3 1 1 -1 -3 -0 2 -0 0 1 0 -0 1 1 1 2 3 2 1 1 0 -0
2 2 3 -3 3 2 -3 -3 0 4 1 2 1 5 3 3 4 3 -1 0 0 0 1 1 1 0 -0 -1 -3 2 -3 -3 -2 -2 -1 -3 -3 1 2 1 1 1 1 2 1 1 0 1 1 1 0 -1 -0 -0
2 4 5 5 4 2 2 2 1 4 1 2 5 2 -0 2 1 0 -3 -1 2 3 1 0 -1 -1 -1 -2 -2 -6 -2 0 0 0 -0 -2 1 3 3 2 2 1 1 1 1 2 2 3 2 0 -0 -0 0 0
-3 -1 -0 2 2 1 -1 0 1 2 3 2 -1 -0 -1 -1 -2 1 1 3 2 2 0 -1 -1 -2 -3 -1 -3 -3 -3 -2 -1 1 -1 -1 2 2 2 1 1 1 1 2 1 1 1 1 1 0 0 0 0 0
-4 -0 1 1 -2 -2 -2 1 -0 -0 -1 -1 -1 -0 -1 -0 1 0 1 1 -1 -3 -3 -4 -2 -4 -4 -4 -2 -2 -2 -1 1 -0 -1 0 2 2 1 0 -1 -1 0 1 1 1 1 0 0 0 1 1 1 1
-2 -0 0 1 -1 -0 -1 -0 0 0 1 1 1 1 0 -0 1 -0 -1 -2 -1 -1 -1 -4 -6 -4 -1 -2 -1 -0 -1 -1 -1 -0 0 1 0 -1 -0 -0 -1 -1 0 -0 -0 -0 -0 -0 -0 0 1 0 1 0
-1 -1 -1 -1 1 2 1 1 -0 -0 -0 -1 -2 -3 -2 -1 -1 0 -0 -1 -2 -4 -4 -3 -6 -6 -4 -2 -0 0 0 0 1 1 -1 -2 -1 -2 1 1 1 -0 0 0 0 -0 0 -0 0 0 -0 -1 -1 0
-1 -0 -0 -1 -2 -2 -2 -1 -1 -2 -2 -2 -1 -1 -1 -1 -2 -3 -2 -1 -1 -3 -3 -1 1 2 1 3 2 -1 -3 -1 -1 -0 0 -0 -0 -1 -1 -1 -2 -1 -0 0 1 1 1 -0 1 -0 0 0 0 -0
-2 -1 -2 -2 -3 -2 -2 -2 -2 -2 -2 -2 -3 -4 -3 -2 -1 -1 -2 -2 -2 -3 -3 -4 -4 -4 -2 -1 -0 2 1 -4 -2 -2 -1 0 -1 -1 -1 -1 -1 -1 -2 -1 0 1 1 0 -0 0 -1 -0 -0 -0
-2 -3 -2 -2 -2 -2 -1 -1 -2 -1 -1 -1 -1 -1 -1 -1 -2 -1 -1 -3 -3 -2 -3 -3 -1 0 -1 -1 -2 -3 -1 1 -0 -2 -4 -3 -0 0 -0 -2 -1 -1 -1 -0 0 0 1 0 -1 0 0 -1 -1 -1
-0 1 2 0 -1 -0 0 0 0 -1 -1 -1 -2 -2 -2 -3 -4 -3 -2 -2 -1 0 1 2 1 -1 -2 -1 -0 -0 -0 -0 -1 -2 -1 -1 -1 0 -1 -3 0 -1 -1 -1 -1 -0 0 0 0 -0 -1 -0 -0 0
Height
3089 3089 3090 3090 3089 3088 3088 3086 3083 3081 3079 3077 3075 3072 3070 3065 3059 3056 3051 3046 3044 3041 3037 3035 3034 3033 3031 3029 3028 3027 3026 3023 3021 3019 3019 3019 3018 3018 3017 3016 3013 3014 3012 3009 3010 3010 3008 3006 3006 3010 3008 3008 3009 3010
3080 3080 3081 3081 3080 3080 3079 3079 3077 3076 3074 3071 3069 3067 3066 3063 3056 3052 3048 3044 3040 3037 3035 3032 3030 3029 3028 3026 3026 3024 3023 3021 3020 3018 3017 3016 3016 3015 3013 3013 3012 3011 3010 3008 3007 3003 3001 3002 3003 3003 3004 3005 3007 3007
3070 3070 3070 3071 3071 3071 3071 3070 3069 3068 3067 3065 3063 3061 3058 3058 3054 3048 3044 3040 3037 3033 3031 3029 3028 3025 3023 3021 3020 3022 3020 3018 3017 3016 3014 3012 3012 3011 3010 3007 3003 3001 3001 3000 3000 2998 2999 2999 2999 3000 3000 3001 3002 3003
3057 3058 3060 3060 3061 3061 3061 3061 3060 3060 3059 3058 3056 3054 3053 3052 3049 3043 3039 3035 3032 3030 3028 3026 3022 3019 3016 3014 3013 3015 3016 3015 3014 3013 3010 3008 3007 3005 3004 3004 3000 3002 2998 2997 2996 2994 2994 2993 2995 2995 2996 2997 2997 2997
3040 3044 3046 3048 3049 3050 3051 3051 3051 3051 3051 3050 3049 3047 3047 3045 3042 3040 3034 3031 3027 3027 3021 3018 3016 3013 3011 3010 3009 3010 3011 3011 3010 3008 3007 3003 3001 3000 2997 2995 2992 2993 2993 2992 2991 2992 2991 2991 2989 2989 2989 2990 2990 2990
3026 3029 3032 3034 3037 3039 3040 3040 3041 3042 3042 3042 3041 3039 3039 3039 3036 3033 3028 3027 3023 3019 3014 3009 3007 3006 3004 3004 3005 3006 3007 3007 3006 3003 3001 2998 2995 2995 2991 2987 2989 2987 2986 2983 2983 2983 2985 2985 2986 2986 2986 2986 2985 2985
3007 3010 3016 3020 3023 3026 3028 3030 3032 3033 3033 3034 3032 3031 3031 3031 3029 3029 3025 3020 3016 3014 3010 3004 2999 2996 2996 2997 3000 3002 3003 3002 3000 2998 2994 2993 2991 2990 2984 2982 2981 2981 2981 2981 2981 2981 2981 2982 2981 2980 2980 2980 2979 2979
2992 2994 2997 3003 3007 3011 3015 3018 3021 3023 3024 3024 3022 3021 3022 3022 3020 3021 3019 3013 3010 3006 3003 2998 2994 2994 2992 2993 2995 2996 2997 2996 2994 2992 2989 2988 2987 2985 2980 2978 2977 2976 2977 2975 2975 2977 2977 2977 2978 2977 2975 2975 2974 2973
2977 2980 2982 2985 2989 2995 2999 3003 3008 3011 3014 3012 3012 3011 3012 3013 3010 3010 3009 3005 3002 3004 2994 2989 2987 2987 2986 2987 2989 2990 2990 2989 2987 2985 2984 2983 2980 2979 2977 2975 2972 2971 2970 2969 2968 2969 2971 2971 2971 2972 2972 2970 2969 2967
2962 2965 2967 2970 2973 2976 2984 2988 2993 2996 2999 3001 3002 3003 3002 3002 3000 3002 2998 2996 2991 2986 2979 2977 2977 2980 2982 2983 2983 2986 2983 2983 2978 2978 2977 2974 2971 2974 2970 2968 2967 2965 2964 2963 2963 2964 2964 2964 2964 2964 2965 2966 2964 2962
2944 2949 2953 2956 2959 2961 2964 2973 2979 2984 2983 2985 2987 2994 2994 2993 2993 2991 2988 2987 2984 2980 2974 2972 2973 2976 2978 2979 2978 2978 2977 2976 2973 2971 2971 2964 2964 2965 2964 2962 2961 2959 2957 2957 2957 2957 2958 2958 2958 2958 2957 2957 2956 2954
2924 2931 2937 2941 2945 2948 2951 2955 2962 2968 2972 2975 2982 2985 2985 2984 2983 2982 2976 2974 2972 2972 2969 2968 2971 2973 2974 2975 2973 2972 2971 2971 2966 2964 2963 2955 2957 2956 2956 2955 2954 2953 2951 2951 2950 2950 2950 2951 2950 2950 2949 2948 2946 2944
2903 2911 2921 2926 2930 2934 2938 2941 2948 2957 2960 2967 2974 2974 2973 2971 2967 2960 2957 2958 2961 2963 2964 2965 2968 2970 2970 2970 2969 2967 2963 2963 2961 2957 2952 2950 2948 2948 2948 2948 2947 2945 2944 2943 2942 2941 2941 2942 2942 2941 2940 2939 2937 2936
2884 2893 2904 2912 2916 2921 2925 2928 2933 2943 2951 2957 2960 2959 2953 2949 2944 2944 2945 2946 2950 2955 2959 2961 2963 2965 2964 2964 2962 2960 2956 2955 2951 2946 2942 2943 2942 2940 2940 2940 2940 2938 2937 2937 2936 2936 2934 2934 2933 2932 2931 2930 2929 2927
2867 2877 2889 2897 2903 2907 2912 2917 2921 2931 2938 2943 2945 2937 2929 2934 2938 2940 2941 2938 2940 2947 2952 2956 2957 2957 2957 2956 2954 2952 2948 2943 2937 2935 2935 2935 2935 2934 2933 2933 2932 2930 2929 2928 2928 2930 2929 2926 2924 2923 2922 2921 2920 2918
2853 2864 2872 2882 2889 2896 2902 2908 2914 2921 2928 2931 2927 2923 2921 2927 2929 2933 2936 2932 2933 2937 2943 2948 2948 2948 2946 2945 2942 2938 2935 2931 2931 2930 2930 2930 2929 2927 2926 2924 2924 2921 2920 2919 2918 2917 2918 2916 2914 2913 2912 2911 2909 2907
2841 2847 2856 2868 2878 2886 2893 2897 2904 2911 2917 2914 2912 2915 2920 2923 2926 2926 2929 2928 2928 2929 2933 2938 2939 2940 2936 2933 2930 2926 2923 2925 2924 2924 2923 2922 2920 2918 2916 2914 2913 2911 2910 2909 2907 2905 2906 2904 2903 2902 2901 2900 2898 2897
2828 2835 2847 2860 2870 2877 2884 2890 2899 2902 2902 2901 2902 2910 2914 2916 2918 2918 2920 2922 2922 2923 2925 2927 2928 2925 2925 2922 2920 2919 2918 2917 2916 2915 2913 2911 2910 2908 2905 2903 2901 2900 2898 2897 2896 2893 2893 2893 2892 2892 2890 2889 2888 2886
2816 2830 2842 2851 2857 2867 2878 2884 2889 2890 2892 2896 2899 2905 2908 2909 2911 2913 2913 2914 2914 2914 2914 2914 2916 2912 2912 2910 2910 2910 2909 2907 2906 2905 2903 2901 2898 2895 2893 2891 2889 2887 2885 2884 2883 2882 2882 2882 2881 2880 2879 2878 2877 2876
2815 2825 2834 2843 2855 2862 2871 2876 2880 2885 2888 2890 2893 2898 2901 2902 2905 2904 2904 2904 2904 2903 2903 2902 2902 2902 2903 2902 2901 2901 2899 2897 2895 2893 2893 2891 2887 2884 2882 2879 2876 2874 2872 2871 2871 2870 2871 2871 2870 2869 2869 2868 2868 2866
2811 2821 2834 2844 2852 2859 2864 2867 2872 2877 2883 2886 2889 2892 2894 2896 2897 2895 2894 2894 2893 2892 2892 2892 2893 2894 2894 2893 2892 2891 2889 2886 2884 2881 2879 2877 2876 2872 2870 2868 2865 2863 2861 2860 2860 2859 2859 2860 2859 2859 2859 2859 2858 2858
2813 2826 2835 2844 2850 2856 2861 2864 2869 2873 2878 2880 2884 2885 2886 2888 2888 2887 2885 2883 2883 2884 2886 2886 2886 2886 2885 2884 2882 2881 2879 2877 2874 2872 2869 2866 2864 2862 2860 2858 2856 2854 2852 2851 2850 2850 2850 2850 2850 2850 2850 2850 2850 2849
2819 2828 2837 2843 2850 2853 2858 2862 2866 2869 2872 2874 2877 2879 2879 2880 2879 2879 2877 2877 2878 2879 2879 2879 2878 2878 2877 2875 2873 2872 2870 2867 2866 2864 2861 2858 2856 2854 2851 2848 2846 2845 2843 2842 2841 2841 2841 2842 2842 2841 2842 2842 2842 2842
2824 2830 2837 2843 2846 2851 2855 2857 2860 2864 2867 2870 2872 2873 2873 2873 2874 2872 2872 2873 2872 2873 2872 2872 2871 2870 2868 2866 2865 2863 2861 2859 2857 2855 2852 2849 2848 2845 2841 2839 2837 2835 2835 2834 2834 2834 2834 2835 2835 2835 2835 2835 2835 2835
2828 2834 2838 2840 2843 2847 2849 2852 2855 2859 2862 2865 2867 2867 2867 2869 2868 2868 2868 2868 2867 2866 2866 2865 2864 2863 2862 2861 2858 2855 2854 2851 2847 2844 2841 2839 2838 2835 2833 2831 2830 2829 2829 2828 2828 2828 2828 2828 2828 2828 2828 2828 2828 2828
2827 2832 2836 2837 2841 2846 2847 2851 2854 2857 2859 2861 2863 2864 2865 2865 2865 2863 2861 2861 2862 2862 2861 2861 2859 2857 2854 2851 2849 2846 2843 2840 2838 2835 2833 2832 2830 2828 2827 2826 2825 2824 2823 2823 2822 2822 2821 2821 2821 2821 2821 2821 2821 2821
2829 2833 2836 2839 2841 2845 2848 2851 2854 2856 2858 2860 2860 2861 2861 2860 2859 2858 2858 2858 2858 2858 2856 2854 2852 2849 2847 2844 2842 2839 2837 2834 2832 2830 2828 2826 2824 2823 2822 2821 2819 2819 2818 2817 2816 2815 2815 2815 2815 2815 2815 2815 2815 2815
2832 2835 2839 2842 2844 2846 2849 2851 2853 2854 2855 2856 2857 2857 2857 2857 2857 2856 2855 2854 2853 2851 2849 2847 2845 2844 2841 2839 2837 2834 2831 2829 2826 2824 2822 2820 2819 2817 2816 2814 2813 2812 2811 2810 2809 2808 2808 2808 2808 2808 2808 2808 2809 2809
2837 2839 2843 2844 2846 2847 2848 2850 2851 2852 2852 2853 2854 2854 2854 2853 2853 2852 2852 2851 2849 2847 2846 2843 2840 2838 2835 2832 2830 2827 2825 2822 2820 2817 2815 2812 2811 2810 2808 2807 2806 2805 2804 2803 2802 2801 2801 2801 2801 2801 2801 2802 2802 2803
2842 2843 2844 2845 2846 2847 2848 2850 2850 2851 2851 2851 2852 2852 2851 2851 2851 2850 2850 2849 2847 2844 2841 2839 2836 2833 2830 2827 2823 2820 2816 2814 2812 2810 2808 2806 2804 2803 2801 2799 2798 2797 2796 2796 2795 2795 2794 2794 2795 2795 2795 2796 2796 2797
2844 2845 2846 2847 2848 2849 2849 2850 2850 2850 2851 2851 2851 2851 2851 2850 2849 2848 2847 2844 2842 2840 2837 2834 2830 2826 2823 2819 2816 2813 2809 2806 2803 2801 2800 2799 2798 2796 2795 2793 2792 2791 2790 2790 2790 2790 2789 2789 2790 2790 2790 2791 2791 2792
2848 2849 2849 2849 2850 2851 2851 2851 2851 2851 2851 2851 2851 2850 2850 2849 2847 2846 2844 2842 2840 2837 2834 2831 2827 2823 2819 2815 2810 2806 2803 2800 2796 2794 2792 2791 2790 2789 2788 2787 2786 2785 2785 2784 2784 2784 2784 2784 2785 2785 2785 2786 2786 2787
2851 2852 2852 2852 2852 2852 2852 2852 2852 2852 2852 2851 2851 2850 2849 2848 2846 2845 2842 2840 2837 2834 2831 2827 2823 2818 2814 2810 2806 2802 2798 2794 2791 2788 2786 2784 2782 2781 2780 2780 2779 2779 2778 2778 2778 2778 2778 2779 2779 2779 2780 2781 2781 2782